Total_Precipitation_Accumulation
0.42 0.42 0.42 0.42 0.35 0.32 0.42 0.53 0.81 1.11 1.45 1.76 1.82 1.85 1.91 2.03 1.95 1.73 1.57 1.41 1.26 1.25 1.32 1.29 1.26 1.24 1.26 1.38 1.45 1.65 1.72 1.66 1.61 1.57 1.53 1.53 1.46 1.29 1.13 1.01 0.94 0.97 0.93 0.88
0.43 0.37 0.45 0.44 0.43 0.45 0.53 0.63 0.85 1.18 1.61 1.82 1.81 1.78 1.85 1.95 1.90 1.72 1.45 1.29 1.22 1.22 1.30 1.26 1.22 1.17 1.12 1.22 1.29 1.43 1.56 1.54 1.46 1.42 1.47 1.45 1.42 1.29 1.16 1.05 0.96 0.94 0.91 0.83
0.63 0.41 0.62 0.90 0.68 0.69 0.79 0.82 1.01 1.39 1.59 1.63 1.71 1.72 1.78 1.89 1.96 1.83 1.58 1.47 1.49 1.52 1.50 1.39 1.27 1.18 1.18 1.25 1.32 1.38 1.43 1.37 1.37 1.37 1.33 1.30 1.16 1.09 1.11 1.09 0.95 0.87 0.81 0.73
0.63 0.77 1.25 1.13 0.63 0.71 0.85 0.87 0.92 1.04 1.18 1.34 1.45 1.51 1.66 1.85 1.99 1.95 1.82 1.78 1.79 1.74 1.60 1.46 1.34 1.29 1.27 1.25 1.33 1.41 1.39 1.31 1.24 1.25 1.20 1.15 1.11 1.06 1.04 1.01 0.90 0.86 0.81 0.73
0.85 1.17 1.37 1.10 0.66 0.64 0.95 1.12 0.89 0.89 0.91 0.95 0.98 1.16 1.53 1.68 1.78 1.81 1.81 1.76 1.67 1.60 1.52 1.43 1.32 1.26 1.20 1.19 1.19 1.22 1.18 1.14 1.05 1.06 1.12 1.14 1.12 1.12 1.05 0.95 0.86 0.79 0.77 0.73
0.96 1.31 1.61 1.33 0.63 0.45 0.80 1.48 1.03 0.88 0.93 0.97 1.09 1.34 1.42 1.34 1.34 1.38 1.41 1.44 1.46 1.44 1.37 1.29 1.20 1.11 1.06 1.09 1.09 1.06 1.05 1.04 0.95 0.95 1.02 1.08 1.09 1.07 0.94 0.84 0.80 0.70 0.69 0.71
0.98 1.27 1.46 0.83 0.48 0.63 1.34 1.71 1.14 0.96 0.98 1.11 1.24 1.24 1.03 0.95 1.01 1.09 1.20 1.26 1.27 1.37 1.39 1.22 1.02 0.96 1.00 1.00 1.00 0.89 0.86 0.93 0.96 0.95 0.95 0.95 0.96 0.97 0.89 0.77 0.75 0.72 0.72 0.72
1.06 1.44 1.58 0.70 0.54 0.97 1.18 0.93 0.87 0.90 0.93 0.95 0.90 0.78 0.76 0.78 0.81 0.84 0.99 1.12 1.13 1.25 1.20 1.02 0.89 0.91 0.97 0.94 0.85 0.80 0.88 0.98 0.98 0.95 0.85 0.84 0.94 0.97 0.87 0.77 0.73 0.73 0.73 0.71
1.11 1.33 1.05 0.57 0.56 0.63 0.62 0.68 0.69 0.70 0.66 0.62 0.63 0.60 0.60 0.68 0.75 0.79 0.87 0.98 0.99 1.03 1.01 0.95 0.91 0.96 0.99 0.93 0.81 0.84 0.93 0.97 0.97 0.91 0.88 0.86 0.89 0.89 0.83 0.75 0.69 0.67 0.67 0.66
0.69 0.73 0.53 0.45 0.41 0.40 0.43 0.53 0.55 0.58 0.63 0.55 0.58 0.60 0.60 0.63 0.71 0.80 0.86 0.86 0.86 0.91 0.92 0.89 0.84 0.84 0.84 0.76 0.75 0.84 0.93 0.90 0.90 0.93 0.93 0.85 0.78 0.73 0.70 0.66 0.62 0.59 0.58 0.56
0.65 0.53 0.46 0.44 0.37 0.32 0.34 0.38 0.43 0.50 0.60 0.60 0.59 0.66 0.65 0.66 0.72 0.78 0.83 0.83 0.85 0.90 0.91 0.82 0.77 0.72 0.71 0.72 0.76 0.86 0.85 0.79 0.79 0.84 0.83 0.79 0.67 0.58 0.54 0.47 0.39 0.39 0.39 0.38
0.65 0.50 0.53 0.47 0.34 0.31 0.38 0.41 0.42 0.48 0.59 0.56 0.56 0.64 0.71 0.72 0.70 0.69 0.75 0.77 0.80 0.78 0.79 0.75 0.67 0.64 0.66 0.69 0.68 0.76 0.75 0.69 0.67 0.70 0.70 0.64 0.58 0.50 0.43 0.32 0.28 0.23 0.21 0.22
0.38 0.33 0.33 0.32 0.33 0.40 0.46 0.46 0.50 0.55 0.52 0.46 0.52 0.59 0.68 0.73 0.62 0.59 0.61 0.64 0.70 0.69 0.69 0.66 0.63 0.65 0.66 0.59 0.58 0.64 0.66 0.63 0.57 0.54 0.58 0.55 0.50 0.50 0.51 0.37 0.27 0.23 0.19 0.21
0.32 0.36 0.42 0.46 0.52 0.51 0.49 0.43 0.43 0.42 0.41 0.40 0.46 0.53 0.57 0.60 0.52 0.51 0.57 0.57 0.55 0.59 0.61 0.60 0.59 0.57 0.52 0.48 0.53 0.56 0.53 0.47 0.45 0.46 0.45 0.43 0.42 0.41 0.42 0.48 0.49 0.40 0.27 0.23
0.37 0.41 0.47 0.45 0.44 0.40 0.36 0.33 0.34 0.35 0.36 0.40 0.40 0.43 0.45 0.49 0.48 0.44 0.46 0.46 0.47 0.52 0.54 0.50 0.47 0.49 0.47 0.45 0.47 0.47 0.41 0.37 0.36 0.35 0.34 0.35 0.36 0.34 0.34 0.38 0.43 0.44 0.42 0.33
0.30 0.29 0.31 0.32 0.32 0.30 0.29 0.30 0.30 0.31 0.32 0.35 0.36 0.36 0.37 0.36 0.35 0.32 0.32 0.37 0.51 0.58 0.53 0.44 0.41 0.42 0.42 0.44 0.47 0.44 0.36 0.31 0.27 0.26 0.26 0.27 0.28 0.29 0.31 0.31 0.32 0.37 0.38 0.32
0.29 0.30 0.30 0.26 0.23 0.23 0.23 0.22 0.20 0.23 0.25 0.28 0.29 0.25 0.25 0.25 0.28 0.29 0.32 0.38 0.44 0.47 0.43 0.40 0.36 0.31 0.33 0.40 0.43 0.36 0.28 0.24 0.21 0.19 0.21 0.22 0.22 0.23 0.25 0.24 0.29 0.32 0.27 0.23
0.28 0.24 0.21 0.20 0.18 0.17 0.18 0.15 0.15 0.20 0.22 0.22 0.21 0.21 0.21 0.23 0.27 0.28 0.31 0.36 0.38 0.37 0.33 0.28 0.27 0.26 0.24 0.28 0.35 0.31 0.25 0.24 0.18 0.17 0.18 0.20 0.21 0.22 0.20 0.21 0.23 0.24 0.22 0.20
0.20 0.13 0.12 0.13 0.12 0.13 0.15 0.14 0.15 0.17 0.17 0.18 0.18 0.18 0.18 0.21 0.22 0.23 0.27 0.34 0.38 0.38 0.32 0.23 0.22 0.21 0.19 0.20 0.24 0.24 0.21 0.20 0.18 0.17 0.18 0.20 0.20 0.21 0.18 0.15 0.16 0.18 0.17 0.17
0.14 0.10 0.10 0.11 0.10 0.11 0.13 0.13 0.14 0.15 0.15 0.15 0.14 0.15 0.19 0.19 0.16 0.19 0.26 0.34 0.37 0.32 0.25 0.22 0.18 0.15 0.14 0.15 0.18 0.19 0.18 0.17 0.16 0.15 0.17 0.19 0.20 0.17 0.14 0.13 0.15 0.17 0.18 0.19
0.12 0.10 0.10 0.11 0.10 0.10 0.12 0.13 0.13 0.14 0.13 0.14 0.15 0.15 0.16 0.16 0.14 0.18 0.27 0.35 0.32 0.25 0.20 0.19 0.18 0.14 0.13 0.14 0.16 0.17 0.16 0.15 0.13 0.12 0.14 0.17 0.18 0.14 0.13 0.14 0.14 0.16 0.18 0.20
0.11 0.11 0.13 0.12 0.12 0.12 0.13 0.13 0.14 0.15 0.15 0.16 0.15 0.13 0.16 0.18 0.16 0.20 0.24 0.26 0.23 0.17 0.15 0.15 0.14 0.13 0.13 0.14 0.13 0.12 0.13 0.14 0.14 0.15 0.15 0.13 0.12 0.11 0.11 0.12 0.15 0.16 0.16 0.17
0.12 0.13 0.14 0.13 0.13 0.12 0.12 0.16 0.18 0.18 0.16 0.15 0.14 0.14 0.16 0.19 0.18 0.19 0.20 0.16 0.13 0.12 0.13 0.12 0.12 0.11 0.10 0.09 0.09 0.10 0.12 0.13 0.12 0.13 0.13 0.12 0.11 0.12 0.13 0.13 0.14 0.15 0.16 0.15
0.15 0.15 0.13 0.12 0.13 0.16 0.17 0.16 0.17 0.16 0.15 0.12 0.11 0.12 0.13 0.16 0.18 0.17 0.17 0.14 0.13 0.11 0.10 0.10 0.11 0.09 0.08 0.07 0.08 0.10 0.11 0.11 0.09 0.09 0.11 0.11 0.12 0.12 0.12 0.12 0.12 0.12 0.12 0.11
0.20 0.19 0.16 0.15 0.17 0.20 0.17 0.16 0.14 0.12 0.11 0.10 0.09 0.10 0.10 0.11 0.12 0.14 0.15 0.14 0.15 0.13 0.10 0.09 0.08 0.08 0.09 0.09 0.10 0.11 0.10 0.08 0.07 0.06 0.07 0.09 0.10 0.09 0.09 0.10 0.10 0.10 0.09 0.09
0.29 0.24 0.21 0.21 0.19 0.18 0.16 0.18 0.17 0.13 0.12 0.11 0.10 0.10 0.10 0.12 0.13 0.15 0.16 0.16 0.16 0.13 0.10 0.08 0.08 0.09 0.10 0.11 0.10 0.09 0.09 0.08 0.07 0.06 0.05 0.07 0.08 0.08 0.09 0.10 0.09 0.09 0.10 0.10
0.43 0.34 0.29 0.25 0.20 0.17 0.17 0.20 0.18 0.15 0.12 0.12 0.12 0.12 0.12 0.14 0.15 0.15 0.15 0.15 0.14 0.11 0.09 0.08 0.08 0.09 0.09 0.10 0.09 0.09 0.10 0.08 0.05 0.05 0.07 0.07 0.08 0.09 0.10 0.09 0.09 0.10 0.11 0.10